Location: Oakhurst
(33.6448°N, 111.9543°W)
Time: 10:40:48
(UTC+00:00)

SPROUT - Pass Details

Date: 01 August 2021
Orbit: 597 x 607 km, 97.9° (Epoch: 21 September)

Event Time Altitude Azimuth Distance (km) Brightness Sun altitude
Exits shadow 07:46:50 12° 2° (N) 1,810 ? -38.3°
Drops below altitude 10° 07:47:10 10° 1° (N) 1,938 ? -38.3°
Sets 07:49:23 0° 355° (N) 2,844 ? -38.3°
